Overview Statistics Trail Chart Weather Telemetry Raw packets
 

This is the latest recevied weather packets stored in our database for station/object KQ7A. If no packets are shown the sender has not sent any weather packets the latest 10 day(s).

<< 50 51 52 53 54 55 56 >>
Time Temp. Humidity Pressure Rain* Wind** Luminosity Snow
1788336953 11.67° C 34% 1016.7 hPa 0 mm - 0 W/m² -
1788336648 12.22° C 32% 1016.7 hPa 0 mm - 0 W/m² -
1788336343 11.67° C 33% 1016.6 hPa 0 mm - 0 W/m² -
1788336040 11.67° C 35% 1016.6 hPa 0 mm - 0 W/m² -
1788335739 12.78° C 34% 1016.4 hPa 0 mm - 0 W/m² -
1788335435 12.22° C 32% 1016.3 hPa 0 mm - 0 W/m² -
1788335131 11.67° C 35% 1016.3 hPa 0 mm - 0 W/m² -
1788334825 11.67° C 34% 1016.6 hPa 0 mm - 0 W/m² -
1788334521 12.22° C 32% 1016.4 hPa 0 mm - 0 W/m² -
1788334218 11.67° C 33% 1016.7 hPa 0 mm - 0 W/m² -
1788333918 11.67° C 32% 1016.7 hPa 0 mm - 0 W/m² -
1788333615 12.78° C 31% 1016.6 hPa 0 mm - 0 W/m² -
1788333313 13.89° C 29% 1016.6 hPa 0 mm - 0 W/m² -
1788333010 13.89° C 27% 1016.7 hPa 0 mm - 0 W/m² -
1788332705 14.44° C 27% 1016.6 hPa 0 mm - 0 W/m² -
1788332405 13.89° C 25% 1016.3 hPa 0 mm - 0 W/m² -
1788332099 13.89° C 25% 1016.4 hPa 0 mm - 0 W/m² -
1788331794 15.56° C 21% 1016.1 hPa 0 mm - 0 W/m² -
1788331490 15° C 19% 1016.1 hPa 0 mm - 0 W/m² -
1788331186 15° C 23% 1016 hPa 0 mm - 0 W/m² -
1788330880 15° C 20% 1015.8 hPa 0 mm - 0 W/m² -
1788330576 15.56° C 23% 1015.6 hPa 0 mm - 0 W/m² -
1788330274 15° C 26% 1015.6 hPa 0 mm - 0 W/m² -
1788329969 15° C 26% 1016 hPa 0 mm - 0 W/m² -
1788329664 15.56° C 25% 1016 hPa 0 mm - 0 W/m² -

* Rain latest hour (hover to see other rain measurements)
** Current wind speed in m/s (hover to see current wind gust speed)